Weather History for Wilmington, OH

Change the Weather History Date:

Sunday, March 23, 2014

  Actual Average (KDAY) Record (KDAY)
Temperature  
Mean Temperature 30 °F 43 °F  
Max Temperature 36 °F 53 °F 83 °F (1907)
Min Temperature 21 °F 33 °F 8 °F (1906)
Degree Days  
Heating Degree Days 35 22  
Month to date heating degree days 601  
Since 1 July heating degree days 4876  
Cooling Degree Days 0 0  
Month to date cooling degree days 0  
Year to date cooling degree days 0  
Moisture  
Dew Point 18 °F    
Average Humidity 61    
Maximum Humidity 79    
Minimum Humidity 39    
Precipitation  
Precipitation 0.00 in 0.11 in 1.86 in (2007)
Month to date precipitation 2.35  
Year to date precipitation 7.30  
Snow  
Snow 0.00 in 0.10 in 2.70 in (1974)
Month to date snowfall 2.9  
Since 1 July snowfall 22.2  
Snow Depth -    
Sea Level Pressure  
Sea Level Pressure 30.30 in    
Wind  
Wind Speed 10 mph (North)    
Max Wind Speed 15 mph    
Max Gust Speed 22 mph    
Visibility 10 miles    
Events      
T = Trace of Precipitation, MM = Missing Value Source: NWS Daily Summary

Daily Weather History Graph

Daily Weather History Graph

Search for Another Location

Airport:

Trip Planner

Search our weather history database for the weather conditions in past years. The results will help you decide how hot, cold, wet, or windy it might be!

Date:

Astronomy

Mar. 23, 2014 Rise Set
Actual Time 7:33 AM EDT 7:50 PM EDT
Civil Twilight 7:07 AM EDT 8:17 PM EDT
Nautical Twilight 6:35 AM EDT 8:48 PM EDT
Astronomical Twilight 6:03 AM EDT 9:20 PM EDT
Moon 2:04 AM EDT (3/23) 12:15 PM EDT (3/23)
Length of Visible Light 13h 10m
Length of Day
12h 16m
Waning Gibbous, 55% of the Moon is Illuminated
Mar 23
Waning Gibbous
Mar 23
Last Quarter
Mar 30
New
Apr 7
First Quarter
Apr 15
Full

Hourly Weather History & Observations

Time (EDT) Temp. Windchill Dew Point Humidity Pressure Visibility Wind Dir Wind Speed Gust Speed Precip Events Conditions
12:54 AM 35.1 °F 31.0 °F 27.0 °F 72% 30.23 in 9.0 mi NNW 4.6 mph - N/A   Clear
1:54 AM 34.0 °F 28.8 °F 27.0 °F 75% 30.22 in 9.0 mi North 5.8 mph - N/A   Clear
2:54 AM 34.0 °F 28.8 °F 27.0 °F 75% 30.22 in 9.0 mi NNW 5.8 mph - N/A   Clear
3:54 AM 33.1 °F 26.1 °F 27.0 °F 78% 30.22 in 10.0 mi North 8.1 mph - N/A   Mostly Cloudy
4:54 AM 34.0 °F 25.5 °F 28.0 °F 79% 30.24 in 10.0 mi North 11.5 mph - N/A   Overcast
5:54 AM 33.1 °F 23.4 °F 25.0 °F 72% 30.24 in 10.0 mi North 13.8 mph - N/A   Overcast
6:54 AM 32.0 °F 23.0 °F 23.0 °F 69% 30.28 in 10.0 mi North 11.5 mph - N/A   Overcast
7:54 AM 30.0 °F 21.7 °F 24.1 °F 79% 30.29 in 10.0 mi North 9.2 mph - N/A   Overcast
8:21 AM 30.0 °F 20.0 °F 23.0 °F 75% 30.23 in 10.0 mi North 12.7 mph - N/A   Overcast
8:54 AM 30.0 °F 20.5 °F 21.0 °F 69% 30.31 in 10.0 mi North 11.5 mph - N/A   Mostly Cloudy
9:21 AM 30.0 °F 19.1 °F 19.9 °F 66% 30.24 in 10.0 mi North 15.0 mph - N/A   Overcast
9:54 AM 28.9 °F 20.4 °F 19.0 °F 67% 30.33 in 10.0 mi North 9.2 mph 19.6 mph N/A   Overcast
10:22 AM 30.0 °F 19.5 °F 19.0 °F 64% 30.26 in 10.0 mi NNE 13.8 mph - N/A   Mostly Cloudy
10:54 AM 30.0 °F 20.0 °F 19.0 °F 64% 30.35 in 10.0 mi North 12.7 mph - N/A   Overcast
11:37 AM 32.0 °F 22.1 °F 17.1 °F 54% 30.27 in 10.0 mi NNE 13.8 mph - N/A   Overcast
11:54 AM 33.1 °F 23.4 °F 15.1 °F 48% 30.35 in 10.0 mi North 13.8 mph 19.6 mph N/A   Mostly Cloudy
12:54 PM 34.0 °F 25.5 °F 15.1 °F 46% 30.34 in 10.0 mi North 11.5 mph - N/A   Overcast
1:54 PM 36.0 °F 27.1 °F 14.0 °F 41% 30.32 in 10.0 mi North 13.8 mph 20.7 mph N/A   Overcast
2:54 PM 34.0 °F 24.6 °F 12.0 °F 40% 30.33 in 10.0 mi NNW 13.8 mph - N/A   Overcast
3:54 PM 35.1 °F 25.5 °F 12.0 °F 39% 30.32 in 10.0 mi NNW 15.0 mph 21.9 mph N/A   Partly Cloudy
4:54 PM 35.1 °F 26.4 °F 12.0 °F 39% 30.32 in 10.0 mi NNW 12.7 mph 21.9 mph N/A   Clear
5:54 PM 35.1 °F 25.5 °F 12.0 °F 39% 30.32 in 10.0 mi NW 15.0 mph - N/A   Scattered Clouds
6:54 PM 32.0 °F 22.5 °F 10.9 °F 42% 30.35 in 10.0 mi NNW 12.7 mph - N/A   Partly Cloudy
7:54 PM 28.9 °F 19.8 °F 10.9 °F 47% 30.37 in 10.0 mi North 10.4 mph - N/A   Clear
8:54 PM 27.0 °F 19.5 °F 12.0 °F 53% 30.38 in 10.0 mi North 6.9 mph - N/A   Partly Cloudy
9:54 PM 25.0 °F 19.3 °F 15.1 °F 66% 30.40 in 10.0 mi North 4.6 mph - N/A   Clear
10:54 PM 24.1 °F 17.0 °F 14.0 °F 65% 30.40 in 10.0 mi NNE 5.8 mph - N/A   Clear
11:54 PM 21.0 °F 11.4 °F 14.0 °F 74% 30.40 in 10.0 mi NNE 8.1 mph - N/A   Clear